Skip Page Navigation
NASA JPL Caltech
NASA Logo - Jet Propulsion Laboratory + View the NASA Portal
+ Center for Near-Earth Object Studies
JPL Home Earth Solar System Stars & Galaxies Technology
JPL Solar System Dynamics
BODIES ORBITS EPHEMERIDES TOOLS PHYSICAL DATA DISCOVERY FAQ SITE MAP
IMPORTANT: The SSD Announcement email list is now available. Major changes are coming in the near future, including possible hostname and/or URL changes. To be notified of such changes, subscribe to this email list.

Please visit this page for more details.


JPL Small-Body Database Browser
Search: [ help ]  
59348 (1999 CU141)
Classification: Main-belt Asteroid          SPK-ID: 2059348
Ephemeris | Orbit Diagram | Orbital Elements | Mission Design | Physical Parameters | Discovery Circumstances ]

[ show orbit diagram ]
Orbital Elements at Epoch 2459000.5 (2020-May-31.0) TDB
Reference: JPL 12 (heliocentric ecliptic J2000)
 Element Value Uncertainty (1-sigma)   Units 
e .1511067693999334 4.9865e-08  
a 2.333536042892296 9.9741e-09 au
q 1.980922950172537 1.1827e-07 au
i 2.407223707315873 5.3812e-06 deg
node 123.5565855134118 0.00012854 deg
peri 98.44197168264296 0.00013027 deg
M 278.7754761340792 2.3538e-05 deg
tp 2459294.268259469168
(2021-Mar-20.76825947)
8.6026e-05 TDB
period 1302.027618942715
3.56
8.3477e-06
2.285e-08
d
yr
n .2764918307127238 1.7727e-09 deg/d
Q 2.686149135612055 1.1481e-08 au
  Orbit Determination Parameters
   # obs. used (total)      532  
   data-arc span      8653 days (23.69 yr)  
   first obs. used      1996-05-20  
   last obs. used      2020-01-28  
   planetary ephem.      DE431  
   SB-pert. ephem.      SB431-N16  
   condition code      0  
   norm. resid. RMS      .58041  
   source      ORB  
   producer      Otto Matic  
   solution date      2020-Feb-23 12:46:40  

Additional Information
 Earth MOID = .974148 au 
 Jupiter MOID = 2.28938 au 
 T_jup = 3.553 
[ show covariance matrix ]

Ephemeris | Orbit Diagram | Orbital Elements | Mission Design | Physical Parameters | Discovery Circumstances ]

Physical Parameter Table
Parameter Symbol Value Units Sigma Reference Notes
absolute magnitude H 16.4   n/a MPO250749  
diameter diameter 1.408 km 0.124 urn:nasa:pds:neowise_diameters_albedos::2.0[mainbelt] (http://adsabs.harvard.edu/abs/2011ApJ...741...68M)  
geometric albedo albedo 0.170   0.066 urn:nasa:pds:neowise_diameters_albedos::2.0[mainbelt] (http://adsabs.harvard.edu/abs/2011ApJ...741...68M)  

59348 (1999 CU141)          Discovered 1999-Feb-10 by Spacewatch at Kitt Peak
Reference: 20030614/Numbers.arcLast Updated: 2004-04-19
Ephemeris | Orbit Diagram | Orbital Elements | Mission Design | Physical Parameters | Discovery Circumstances ]
ABOUT SSD CREDITS/AWARDS PRIVACY/COPYRIGHT GLOSSARY LINKS
FirstGov 2020-Jun-02 19:10 UT
(server date/time)  
NASA Home Page
Site Manager:   Ryan S. Park
Webmaster  Alan B. Chamberlin